Location: Newark
(35.8967°N, 14.4625°E)
Time: 18:02:37
(UTC+00:00)

N. Korean satellite - Pass Details

Date: 23 March 2019
Orbit: 457 x 508 km, 97.2° (Epoch: 21 April)

Event Time Altitude Azimuth Distance (km) Brightness Sun altitude
Rises 04:16:36 0° 32° (NNE) 2,530 10.8 -10.0°
Reaches altitude 10° 04:19:15 10° 54° (NE) 1,657 10.4 -9.5°
Maximum altitude 04:21:33 16° 94° (E) 1,322 10.1 -9.0°
Drops below altitude 10° 04:23:52 10° 135° (SE) 1,668 9.8 -8.6°
Sets 04:26:33 0° 157° (SSE) 2,555 10.4 -8.0°
